• în România
  • Lista ţărilor
  • Pe 7 zile
  • Temperatura apei
  • Hartă satelitară
  • Meteo pe hartă
  • Widget-uri
  • user-avatar
    Intrare

    Meteo pe oră la Uige

    Astăzi, 23 Iunie, Vineri

    Timp Temperatura Precipitaţii Vânt Presiune Umiditate
    00:00 +20°C° 0 mm 1 m/s 692 mmHg 79%
    01:00 +20°C° 0 mm 1 m/s 692 mmHg 91%
    02:00 +19°C° 0 mm 1 m/s 691 mmHg 92%
    03:00 +19°C° 0 mm 1 m/s 691 mmHg 94%
    04:00 +18°C° 0 mm 1 m/s 691 mmHg 95%
    05:00 +19°C° 0 mm 1 m/s 691 mmHg 92%
    06:00 +19°C° 0 mm 1 m/s 692 mmHg 89%
    07:00 +20°C° 0 mm 1 m/s 692 mmHg 81%
    08:00 +23°C° 0 mm 2 m/s 693 mmHg 67%
    09:00 +26°C° 0 mm 2 m/s 693 mmHg 52%
    10:00 +29°C° 0 mm 2 m/s 694 mmHg 38%
    11:00 +31°C° 0 mm 2 m/s 693 mmHg 34%
    12:00 +32°C° 0 mm 2 m/s 693 mmHg 29%
    13:00 +34°C° 0 mm 3 m/s 693 mmHg 26%
    14:00 +32°C° 0 mm 2 m/s 692 mmHg 26%
    15:00 +32°C° 0 mm 2 m/s 692 mmHg 26%
    16:00 +32°C° 0 mm 1 m/s 691 mmHg 26%
    17:00 +29°C° 0 mm 1 m/s 691 mmHg 33%
    18:00 +26°C° 0 mm 1 m/s 691 mmHg 39%
    19:00 +23°C° 0 mm 1 m/s 690 mmHg 45%
    20:00 +22°C° 0 mm 1 m/s 690 mmHg 48%
    21:00 +21°C° 0 mm 1 m/s 691 mmHg 51%
    22:00 +21°C° 0 mm 1 m/s 691 mmHg 54%
    23:00 +20°C° 0 mm 1 m/s 691 mmHg 59%

    Mâine, 24 Iunie, Sâmbătă

    Timp Temperatura Precipitaţii Vânt Presiune Umiditate
    00:00 +19°C° 0 mm 1 m/s 690 mmHg 63%
    01:00 +18°C° 0 mm 1 m/s 690 mmHg 67%
    02:00 +18°C° 0 mm 1 m/s 690 mmHg 69%
    03:00 +16°C° 0 mm 1 m/s 690 mmHg 70%
    04:00 +16°C° 0 mm 1 m/s 690 mmHg 71%
    05:00 +18°C° 0 mm 1 m/s 690 mmHg 68%
    06:00 +19°C° 0 mm 1 m/s 691 mmHg 65%
    07:00 +19°C° 0 mm 1 m/s 691 mmHg 61%
    08:00 +23°C° 0 mm 2 m/s 692 mmHg 50%
    09:00 +26°C° 0 mm 2 m/s 693 mmHg 38%
    10:00 +30°C° 0 mm 3 m/s 694 mmHg 27%
    11:00 +31°C° 0 mm 2 m/s 693 mmHg 25%
    12:00 +32°C° 0 mm 2 m/s 693 mmHg 23%
    13:00 +35°C° 0 mm 2 m/s 692 mmHg 21%
    14:00 +35°C° 0 mm 2 m/s 692 mmHg 22%
    15:00 +34°C° 0 mm 2 m/s 691 mmHg 22%
    16:00 +33°C° 0 mm 1 m/s 691 mmHg 23%
    17:00 +30°C° 0 mm 1 m/s 690 mmHg 29%
    18:00 +27°C° 0 mm 1 m/s 690 mmHg 36%
    19:00 +23°C° 0 mm 1 m/s 690 mmHg 43%
    20:00 +23°C° 0 mm 1 m/s 690 mmHg 45%
    21:00 +22°C° 0 mm 1 m/s 691 mmHg 48%
    22:00 +21°C° 0 mm 1 m/s 691 mmHg 51%
    23:00 +20°C° 0 mm 1 m/s 691 mmHg 56%

    Poimâine, 25 Iunie, Duminică

    Timp Temperatura Precipitaţii Vânt Presiune Umiditate
    00:00 +19°C° 0 mm 1 m/s 691 mmHg 61%
    01:00 +18°C° 0 mm 1 m/s 690 mmHg 66%
    02:00 +18°C° 0 mm 1 m/s 690 mmHg 68%
    03:00 +18°C° 0 mm 1 m/s 690 mmHg 71%
    04:00 +16°C° 0 mm 1 m/s 689 mmHg 73%
    05:00 +18°C° 0 mm 1 m/s 690 mmHg 71%
    06:00 +19°C° 0 mm 1 m/s 690 mmHg 70%
    07:00 +19°C° 0 mm 1 m/s 690 mmHg 68%
    08:00 +23°C° 0 mm 1 m/s 691 mmHg 56%
    09:00 +27°C° 0 mm 1 m/s 692 mmHg 44%
    10:00 +31°C° 0 mm 1 m/s 693 mmHg 32%
    11:00 +33°C° 0 mm 1 m/s 692 mmHg 28%
    12:00 +35°C° 0 mm 1 m/s 692 mmHg 24%
    13:00 +36°C° 0 mm 1 m/s 691 mmHg 21%
    14:00 +36°C° 0 mm 1 m/s 691 mmHg 21%
    15:00 +35°C° 0 mm 1 m/s 690 mmHg 22%
    16:00 +35°C° 0 mm 1 m/s 690 mmHg 22%
    17:00 +31°C° 0 mm 1 m/s 689 mmHg 31%
    18:00 +27°C° 0 mm 1 m/s 689 mmHg 40%
    19:00 +24°C° 0 mm 1 m/s 689 mmHg 49%
    20:00 +23°C° 0 mm 1 m/s 690 mmHg 51%
    21:00 +22°C° 0 mm 1 m/s 690 mmHg 53%
    22:00 +21°C° 0 mm 1 m/s 691 mmHg 56%
    23:00 +21°C° 0 mm 1 m/s 690 mmHg 61%

    26 Iunie, Luni

    Timp Temperatura Precipitaţii Vânt Presiune Umiditate
    00:00 +20°C° 0 mm 1 m/s 690 mmHg 66%
    01:00 +19°C° 0 mm 1 m/s 690 mmHg 71%
    02:00 +19°C° 0 mm 1 m/s 690 mmHg 74%
    03:00 +18°C° 0 mm 1 m/s 689 mmHg 76%
    04:00 +18°C° 0 mm 1 m/s 689 mmHg 78%
    05:00 +19°C° 0 mm 1 m/s 690 mmHg 76%
    06:00 +20°C° 0 mm 1 m/s 690 mmHg 73%
    07:00 +20°C° 0 mm 1 m/s 691 mmHg 70%
    08:00 +24°C° 0 mm 1 m/s 692 mmHg 57%
    09:00 +28°C° 0 mm 1 m/s 692 mmHg 44%
    10:00 +33°C° 0 mm 1 m/s 693 mmHg 31%
    11:00 +34°C° 0 mm 1 m/s 693 mmHg 28%
    12:00 +36°C° 0 mm 2 m/s 692 mmHg 25%
    13:00 +37°C° 0 mm 2 m/s 691 mmHg 21%
    14:00 +37°C° 0 mm 2 m/s 691 mmHg 22%
    15:00 +36°C° 0 mm 2 m/s 690 mmHg 22%
    16:00 +36°C° 0 mm 2 m/s 690 mmHg 23%
    17:00 +32°C° 0 mm 2 m/s 690 mmHg 29%
    18:00 +29°C° 0 mm 2 m/s 690 mmHg 34%
    19:00 +26°C° 0 mm 2 m/s 690 mmHg 40%
    20:00 +25°C° 0 mm 2 m/s 690 mmHg 44%
    21:00 +24°C° 0 mm 1 m/s 691 mmHg 49%
    22:00 +22°C° 0 mm 1 m/s 691 mmHg 54%
    23:00 +21°C° 0 mm 1 m/s 691 mmHg 59%

    27 Iunie, Marţi

    Timp Temperatura Precipitaţii Vânt Presiune Umiditate
    00:00 +21°C° 0 mm 1 m/s 691 mmHg 65%
    01:00 +20°C° 0 mm 1 m/s 690 mmHg 71%
    02:00 +19°C° 0 mm 1 m/s 690 mmHg 73%
    03:00 +19°C° 0 mm 1 m/s 690 mmHg 74%
    04:00 +19°C° 0 mm 1 m/s 690 mmHg 76%
    05:00 +19°C° 0 mm 1 m/s 690 mmHg 74%
    06:00 +20°C° 0 mm 1 m/s 691 mmHg 71%
    07:00 +20°C° 0 mm 1 m/s 692 mmHg 69%
    08:00 +24°C° 0 mm 1 m/s 692 mmHg 57%
    09:00 +27°C° 0 mm 2 m/s 693 mmHg 46%
    10:00 +30°C° 0 mm 2 m/s 694 mmHg 34%
    11:00 +32°C° 0 mm 2 m/s 693 mmHg 30%
    12:00 +35°C° 0 mm 2 m/s 693 mmHg 26%
    13:00 +37°C° 0 mm 2 m/s 692 mmHg 22%
    14:00 +36°C° 0 mm 2 m/s 692 mmHg 22%
    15:00 +36°C° 0 mm 2 m/s 691 mmHg 22%
    16:00 +36°C° 0 mm 2 m/s 691 mmHg 22%
    17:00 +32°C° 0 mm 2 m/s 691 mmHg 27%
    18:00 +29°C° 0 mm 2 m/s 691 mmHg 33%
    19:00 +26°C° 0 mm 2 m/s 691 mmHg 38%
    20:00 +25°C° 0 mm 2 m/s 691 mmHg 43%
    21:00 +23°C° 0 mm 2 m/s 691 mmHg 47%
    22:00 +22°C° 0 mm 1 m/s 692 mmHg 51%
    23:00 +21°C° 0 mm 1 m/s 691 mmHg 56%

    28 Iunie, Miercuri

    Timp Temperatura Precipitaţii Vânt Presiune Umiditate
    00:00 +20°C° 0 mm 1 m/s 691 mmHg 61%
    01:00 +19°C° 0 mm 1 m/s 691 mmHg 65%
    02:00 +19°C° 0 mm 1 m/s 691 mmHg 66%
    03:00 +19°C° 0 mm 1 m/s 691 mmHg 67%
    04:00 +19°C° 0 mm 1 m/s 690 mmHg 67%
    05:00 +19°C° 0 mm 1 m/s 691 mmHg 66%
    06:00 +20°C° 0 mm 1 m/s 692 mmHg 65%
    07:00 +20°C° 0 mm 1 m/s 692 mmHg 63%
    08:00 +24°C° 0 mm 1 m/s 693 mmHg 52%
    09:00 +27°C° 0 mm 2 m/s 693 mmHg 40%
    10:00 +31°C° 0 mm 2 m/s 694 mmHg 29%
    11:00 +32°C° 0 mm 2 m/s 693 mmHg 25%
    12:00 +35°C° 0 mm 2 m/s 693 mmHg 20%
    13:00 +36°C° 0 mm 2 m/s 692 mmHg 16%
    14:00 +36°C° 0 mm 2 m/s 692 mmHg 16%
    15:00 +36°C° 0 mm 2 m/s 691 mmHg 15%
    16:00 +36°C° 0 mm 2 m/s 691 mmHg 15%
    17:00 +31°C° 0 mm 2 m/s 690 mmHg 19%
    18:00 +28°C° 0 mm 2 m/s 690 mmHg 24%
    19:00 +24°C° 0 mm 2 m/s 690 mmHg 29%
    20:00 +23°C° 0 mm 2 m/s 691 mmHg 37%
    21:00 +21°C° 0 mm 1 m/s 691 mmHg 45%
    22:00 +20°C° 0 mm 1 m/s 691 mmHg 53%
    23:00 +19°C° 0 mm 1 m/s 691 mmHg 61%
    Arată mai mult